Hourly Data Report for July 09, 2004

SHERBROOKE A
QUEBEC

45°26'00.000" N
71°41'00.000" W
241.40 m
7028124
71610
YSC

Download Data

Hourly Data (July 2004)
Hourly Data Report for July 9, 2004
TIME
LST
Temp Definition
°C
Dew Point Definition
°C
Rel Hum Definition
%
Precip. Amount Definition
mm

Wind Dir Definition
10's deg

Wind Spd Definition
km/h
Visibility Definition
km
Stn Press Definition
kPa
Hmdx Definition


Wind Chill Definition


Weather Definition


00:00 14.3 13.5 95     0 1.4 98.19      
01:00 14.5 13.8 96   14 6 6.4 98.18      
02:00 14.3 13.6 96   14 6 5.6 98.17      
03:00 14.6 13.8 95   9 6 0.5 98.17      
04:00 14.5 13.8 96     0 8.0 98.20      
05:00 15.0 14.3 96   12 6 5.6 98.24      
06:00 15.5 14.7 95     0 9.7 98.26      
07:00 15.7 14.8 94     0 1.6 98.27     Rain, Fog
08:00 16.1 15.3 95   25 6 0.8 98.27     Fog
09:00 16.3 15.6 96   28 11 1.6 98.26     Rain, Fog
10:00 17.5 16.4 93   28 13 16.1 98.25     Cloudy
11:00 18.7 16.8 89   27 13 19.3 98.27     Mostly Cloudy
12:00 20.0 16.9 82   27 13 24.1 98.27 25   Mostly Cloudy
13:00 21.1 16.2 74   29 15 24.1 98.28 26   Mostly Cloudy
14:00 18.8 16.9 89     0 19.3 98.33     Rain Showers
15:00 20.6 17.1 80   30 15 19.3 98.31 26   Rain Showers
16:00 22.2 17.1 73   24 9 24.1 98.35 28   Mostly Cloudy
17:00 20.9 15.1 69   26 19 15.0 98.39 25    
18:00 21.0 14.8 68   26 15 15.0 98.42 25    
19:00 19.4 14.6 74   24 7 15.0 98.45      
20:00 18.8 14.6 77   24 11 15.0 98.47      
21:00 17.9 14.8 82   26 6 12.9 98.50     Drizzle
22:00 17.3 15.4 89   27 4 15.0 98.52      
23:00 17.5 15.3 87   27 7 15.0 98.56      

Notes on Data Quality.

Legend

  • E = Estimated
  • M = Missing
  • NA = Not Available*
  • [empty] = Indicates an unobserved value
Date modified: